Voltar ao catálogo

STARLINK-5589

AtivoComunicaçõesVLEO
NORAD 57334·PAYLOAD·🇺🇸 United States

Lançado Jul 16, 2023 de Cape Canaveral Space Force Station

Loading…

Próximas Passagens (próximas 24 horas)

TLE

AtualizadoSource: CelesTrak SupGP

Época: Sep 15, 2026, 03:08 UTC

1 57334C 23099G   26258.13104167 -.00028483  00000+0 -10316-2 0  2588
2 57334  42.9994 262.6089 0001289 266.0096 257.5555 15.27593159    15

Acompanhe STARLINK-5589 em tempo real com AllMySat

Download on the App Store